Location: Agadir Irigdalene
(31.2522°N, 8.7797°W)
Time: 06:39:19
(UTC+00:00)

USA 238 DEB - Pass Details

Date: 01 December 2020
Orbit: 996 x 1216 km, 63.4° (Epoch: 22 January)

Event Time Altitude Azimuth Distance (km) Brightness Sun altitude
Rises 18:45:28 0° 213° (SSW) 3,699 7.4 -15.5°
Reaches altitude 10° 18:48:01 10° 215° (SW) 2,758 6.6 -16.0°
Maximum altitude 18:54:28 74° 300° (WNW) 1,057 3.8 -17.3°
Enters shadow 19:00:38 13° 25° (NNE) 2,669 5.4 -18.6°
